Hourly Weather Rudevschina

Today, 16 April, Friday

Time Temperature Precipitation Wind Pressure Humidity
00:00 +3°C° 0 mm 5 mps 734 mmHg 95%
01:00 +3°C° 0 mm 5 mps 734 mmHg 96%
02:00 +5°C° 0 mm 5 mps 733 mmHg 96%
03:00 +5°C° 0 mm 5 mps 733 mmHg 96%
04:00 +5°C° 0 mm 4 mps 733 mmHg 96%
05:00 +6°C° 0 mm 4 mps 733 mmHg 97%
06:00 +6°C° 0.2 mm 4 mps 733 mmHg 96%
07:00 +6°C° 0.2 mm 4 mps 733 mmHg 95%
08:00 +6°C° 0.2 mm 4 mps 733 mmHg 95%
09:00 +7°C° 0.1 mm 5 mps 734 mmHg 90%
10:00 +8°C° 0.1 mm 5 mps 734 mmHg 86%
11:00 +9°C° 0.1 mm 5 mps 734 mmHg 82%
12:00 +9°C° 0.5 mm 5 mps 734 mmHg 79%
13:00 +10°C° 0.5 mm 6 mps 734 mmHg 76%
14:00 +11°C° 0.5 mm 6 mps 734 mmHg 73%
15:00 +10°C° 0.6 mm 6 mps 734 mmHg 73%
16:00 +10°C° 0.6 mm 6 mps 734 mmHg 72%
17:00 +10°C° 0.6 mm 5 mps 734 mmHg 72%
18:00 +9°C° 0.1 mm 5 mps 735 mmHg 77%
19:00 +7°C° 0.1 mm 4 mps 735 mmHg 81%
20:00 +7°C° 0.1 mm 3 mps 735 mmHg 86%
21:00 +7°C° 0 mm 3 mps 735 mmHg 88%
22:00 +5°C° 0 mm 3 mps 735 mmHg 90%
23:00 +5°C° 0 mm 3 mps 736 mmHg 92%

Tomorrow, 17 April, Saturday

Time Temperature Precipitation Wind Pressure Humidity
00:00 +5°C° 0 mm 3 mps 736 mmHg 94%
01:00 +5°C° 0 mm 3 mps 736 mmHg 95%
02:00 +5°C° 0 mm 3 mps 736 mmHg 96%
03:00 +4°C° 0 mm 3 mps 736 mmHg 96%
04:00 +4°C° 0 mm 3 mps 736 mmHg 96%
05:00 +3°C° 0 mm 3 mps 737 mmHg 96%
06:00 +5°C° 0 mm 3 mps 737 mmHg 92%
07:00 +7°C° 0 mm 3 mps 737 mmHg 87%
08:00 +7°C° 0 mm 4 mps 738 mmHg 83%
09:00 +8°C° 0.1 mm 4 mps 738 mmHg 76%
10:00 +10°C° 0.1 mm 4 mps 738 mmHg 69%
11:00 +12°C° 0.1 mm 4 mps 738 mmHg 61%
12:00 +12°C° 0.1 mm 4 mps 738 mmHg 58%
13:00 +13°C° 0.1 mm 4 mps 738 mmHg 55%
14:00 +13°C° 0.1 mm 4 mps 739 mmHg 52%
15:00 +13°C° 0 mm 4 mps 739 mmHg 54%
16:00 +13°C° 0 mm 3 mps 739 mmHg 55%
17:00 +13°C° 0 mm 3 mps 739 mmHg 57%
18:00 +12°C° 0 mm 3 mps 739 mmHg 62%
19:00 +10°C° 0 mm 3 mps 739 mmHg 68%
20:00 +9°C° 0 mm 3 mps 739 mmHg 73%
21:00 +9°C° 0.3 mm 3 mps 739 mmHg 79%
22:00 +8°C° 0.3 mm 2 mps 739 mmHg 85%
23:00 +8°C° 0.3 mm 2 mps 739 mmHg 91%

Day after tomorrow, 18 April, Sunday

Time Temperature Precipitation Wind Pressure Humidity
00:00 +8°C° 0.3 mm 3 mps 739 mmHg 92%
01:00 +8°C° 0.3 mm 3 mps 738 mmHg 93%
02:00 +8°C° 0.3 mm 3 mps 738 mmHg 93%
03:00 +7°C° 0 mm 4 mps 738 mmHg 94%
04:00 +6°C° 0 mm 4 mps 738 mmHg 94%
05:00 +5°C° 0 mm 4 mps 738 mmHg 95%
06:00 +6°C° 0 mm 4 mps 738 mmHg 90%
07:00 +7°C° 0 mm 5 mps 738 mmHg 85%
08:00 +7°C° 0 mm 5 mps 738 mmHg 80%
09:00 +8°C° 0 mm 5 mps 738 mmHg 76%
10:00 +9°C° 0 mm 5 mps 738 mmHg 71%
11:00 +10°C° 0 mm 5 mps 739 mmHg 67%
12:00 +10°C° 0 mm 5 mps 739 mmHg 66%
13:00 +9°C° 0 mm 5 mps 739 mmHg 66%
14:00 +10°C° 0 mm 4 mps 739 mmHg 65%
15:00 +10°C° 0 mm 4 mps 739 mmHg 66%
16:00 +10°C° 0 mm 4 mps 739 mmHg 67%
17:00 +8°C° 0 mm 4 mps 740 mmHg 69%
18:00 +8°C° 0 mm 4 mps 740 mmHg 71%
19:00 +8°C° 0 mm 3 mps 740 mmHg 74%
20:00 +8°C° 0 mm 3 mps 740 mmHg 77%
21:00 +7°C° 0 mm 3 mps 740 mmHg 80%
22:00 +5°C° 0 mm 3 mps 740 mmHg 83%
23:00 +5°C° 0 mm 3 mps 740 mmHg 87%

19 April, Monday

Time Temperature Precipitation Wind Pressure Humidity
00:00 +4°C° 0 mm 3 mps 740 mmHg 89%
01:00 +3°C° 0 mm 3 mps 740 mmHg 91%
02:00 +3°C° 0 mm 3 mps 740 mmHg 94%
03:00 +3°C° 0 mm 3 mps 740 mmHg 93%
04:00 +2°C° 0 mm 3 mps 740 mmHg 92%
05:00 +2°C° 0 mm 3 mps 740 mmHg 91%
06:00 +3°C° 0 mm 3 mps 740 mmHg 86%
07:00 +4°C° 0 mm 4 mps 740 mmHg 82%
08:00 +5°C° 0 mm 4 mps 740 mmHg 77%
09:00 +5°C° 0 mm 4 mps 739 mmHg 77%
10:00 +5°C° 0 mm 4 mps 739 mmHg 77%
11:00 +5°C° 0 mm 4 mps 739 mmHg 76%
12:00 +5°C° 0 mm 4 mps 739 mmHg 74%
13:00 +6°C° 0 mm 4 mps 739 mmHg 72%
14:00 +7°C° 0 mm 4 mps 739 mmHg 70%
15:00 +7°C° 0 mm 4 mps 738 mmHg 72%
16:00 +7°C° 0 mm 4 mps 738 mmHg 73%
17:00 +7°C° 0 mm 4 mps 738 mmHg 74%
18:00 +6°C° 0 mm 4 mps 738 mmHg 76%
19:00 +6°C° 0 mm 4 mps 737 mmHg 78%
20:00 +6°C° 0 mm 4 mps 737 mmHg 80%
21:00 +5°C° 0 mm 4 mps 737 mmHg 82%
22:00 +5°C° 0 mm 4 mps 736 mmHg 85%
23:00 +5°C° 0 mm 4 mps 736 mmHg 87%

20 April, Tuesday

Time Temperature Precipitation Wind Pressure Humidity
00:00 +4°C° 0 mm 4 mps 736 mmHg 88%
01:00 +4°C° 0 mm 4 mps 735 mmHg 89%
02:00 +4°C° 0 mm 4 mps 735 mmHg 90%
03:00 +4°C° 0 mm 4 mps 734 mmHg 90%
04:00 +4°C° 0 mm 4 mps 734 mmHg 91%
05:00 +3°C° 0 mm 5 mps 733 mmHg 91%
06:00 +3°C° 0 mm 5 mps 733 mmHg 90%
07:00 +3°C° 0 mm 5 mps 733 mmHg 89%
08:00 +3°C° 0 mm 5 mps 732 mmHg 88%
09:00 +5°C° 0 mm 5 mps 732 mmHg 85%
10:00 +5°C° 0 mm 6 mps 731 mmHg 82%
11:00 +5°C° 0 mm 6 mps 731 mmHg 79%
12:00 +5°C° 0.1 mm 6 mps 730 mmHg 82%
13:00 +6°C° 0.1 mm 5 mps 730 mmHg 85%
14:00 +5°C° 0.1 mm 5 mps 730 mmHg 88%
15:00 +4°C° 0 mm 6 mps 729 mmHg 87%
16:00 +4°C° 0 mm 6 mps 729 mmHg 85%
17:00 +5°C° 0 mm 6 mps 728 mmHg 84%
18:00 +4°C° 0 mm 6 mps 728 mmHg 83%
19:00 +4°C° 0 mm 6 mps 727 mmHg 83%
20:00 +4°C° 0 mm 6 mps 727 mmHg 82%
21:00 +4°C° 0.3 mm 6 mps 727 mmHg 84%
22:00 +3°C° 0.3 mm 6 mps 726 mmHg 87%
23:00 +3°C° 0.3 mm 6 mps 726 mmHg 89%

21 April, Wednesday

Time Temperature Precipitation Wind Pressure Humidity
00:00 +3°C° 0.4 mm 6 mps 726 mmHg 90%
01:00 +3°C° 0.4 mm 6 mps 726 mmHg 91%
02:00 +2°C° 0.4 mm 6 mps 725 mmHg 91%
03:00 +2°C° 0.2 mm 6 mps 725 mmHg 92%
04:00 +2°C° 0.2 mm 6 mps 725 mmHg 92%
05:00 +2°C° 0.2 mm 6 mps 725 mmHg 92%
06:00 +2°C° 0.1 mm 6 mps 725 mmHg 90%
07:00 +2°C° 0.1 mm 6 mps 726 mmHg 88%
08:00 +2°C° 0.1 mm 6 mps 726 mmHg 86%
09:00 +3°C° 0 mm 6 mps 726 mmHg 81%
10:00 +4°C° 0 mm 6 mps 726 mmHg 75%
11:00 +5°C° 0 mm 7 mps 727 mmHg 70%
12:00 +6°C° 0 mm 7 mps 727 mmHg 67%
13:00 +6°C° 0 mm 7 mps 727 mmHg 65%
14:00 +8°C° 0 mm 7 mps 728 mmHg 63%
15:00 +8°C° 0.1 mm 6 mps 728 mmHg 64%
16:00 +8°C° 0.1 mm 6 mps 728 mmHg 64%
17:00 +8°C° 0.1 mm 5 mps 729 mmHg 65%
18:00 +7°C° 0 mm 5 mps 729 mmHg 71%
19:00 +6°C° 0 mm 4 mps 730 mmHg 77%
20:00 +5°C° 0 mm 3 mps 730 mmHg 82%
21:00 +4°C° 0 mm 3 mps 731 mmHg 85%
22:00 +3°C° 0 mm 3 mps 731 mmHg 89%
23:00 +3°C° 0 mm 3 mps 732 mmHg 92%
Show more